Location: Unspecified
(0.0000°N, 0.0000°E)
Time: 03:00:29
(UTC+02:00)

Milstar 3 - Visible Passes

Search period start: 24 July 2016 00:00
Search period end: 03 August 2016 00:00
Orbit: 1095 x 5150 km, 28.2° (Epoch: 05 June)

Date Brightness Start Highest point End Pass type
(mag) Time Alt. Az. Time Alt. Az. Time Alt. Az.
24 Jul 6.5 00:35:38 10° SW 01:31:01 - E 00:46:59 27° SSW visible
24 Jul 5.5 04:04:34 69° SE 04:04:34 69° SE 04:23:06 10° ENE visible
24 Jul 5.1 06:38:08 24° WSW 06:54:39 56° NW 07:07:23 10° NE visible
24 Jul 5.9 20:39:07 10° WSW 20:52:57 35° S 21:15:21 12° SE visible
24 Jul 6.3 23:30:31 10° SW 23:48:54 34° S 23:48:54 34° S visible
25 Jul 5.9 03:06:33 45° ESE 03:06:33 45° ESE 03:19:38 10° E visible
25 Jul 5.2 05:40:06 46° WSW 05:50:46 74° NNW 06:06:05 10° NE visible
25 Jul 6.2 22:26:00 10° SW 22:45:24 32° S 22:50:50 31° SSE visible
26 Jul 6.5 01:18:17 10° SW 02:08:30 23° E 02:14:52 10° E visible
26 Jul 5.3 04:42:04 75° SW 04:45:53 89° SSE 05:04:13 10° ENE visible
26 Jul 5.4 07:15:37 11° W 07:35:48 38° NW 07:47:04 10° NNE visible
26 Jul 6.1 21:22:03 10° WSW 21:37:37 31° S 21:52:46 20° SE visible
27 Jul 6.4 00:13:16 10° SW 01:10:26 - E 00:26:19 31° SSW visible
27 Jul 5.6 03:44:00 68° ESE 03:44:00 68° ESE 04:01:34 10° ENE visible
27 Jul 5.3 06:17:33 29° W 06:32:10 53° NW 06:46:07 10° NE visible
27 Jul 5.9 20:18:40 10° WSW 20:31:12 31° S 20:52:44 10° SE visible
27 Jul 6.2 23:08:51 10° SW 23:28:15 35° S 23:28:15 35° S visible
28 Jul 6.1 02:00:27 10° SW 02:45:54 41° E 02:57:55 10° ENE visible
28 Jul 5.3 05:19:27 53° W 05:27:48 70° NW 05:44:42 10° NE visible
28 Jul 6.2 22:04:57 10° SW 22:23:04 31° S 22:30:12 29° SSE visible
29 Jul 6.6 00:55:23 10° SW 01:47:47 20° E 01:52:55 10° E visible
29 Jul 5.4 04:21:20 84° W 04:22:30 86° NNW 04:42:39 10° ENE visible
29 Jul 5.6 06:54:53 14° W 07:13:38 37° NNW 07:25:55 10° NNE visible
29 Jul 6.1 21:01:28 10° SW 21:15:44 28° S 21:32:10 17° SE visible
29 Jul 6.2 23:51:02 10° SW 00:49:38 - E 00:05:44 35° SSW visible
30 Jul 5.7 03:23:11 63° E 03:23:11 63° E 03:39:50 10° ENE visible
30 Jul 5.5 05:56:44 33° W 06:09:28 51° NNW 06:24:48 10° NE visible
30 Jul 5.9 19:58:21 10° WSW 20:09:38 27° S 20:28:33 10° SE visible
30 Jul 6.1 22:47:15 10° SW 23:07:43 36° SSE 23:07:43 36° SSE visible
31 Jul 6.2 01:37:12 10° SW 02:25:01 37° E 02:35:57 10° ENE visible
31 Jul 5.5 04:58:33 58° WNW 05:04:36 66° NW 05:23:11 10° NE visible
31 Jul 5.8 07:39:20 10° WNW 07:55:39 25° NNW 08:05:40 10° NNE visible
31 Jul 6.1 21:43:56 10° SW 22:00:49 30° SSE 22:09:43 26° SE visible
01 Aug 6.4 00:32:41 10° SW 01:26:48 18° E 01:30:40 10° E visible
01 Aug 5.5 04:00:21 80° N 04:00:21 80° N 04:20:56 10° NE visible
01 Aug 5.8 06:33:53 17° W 06:51:23 36° NNW 07:04:44 10° NNE visible
01 Aug 6.0 20:40:56 10° SW 20:53:58 26° S 21:11:44 13° SE visible
01 Aug 6.1 23:28:54 10° SW 00:28:34 - E 23:45:19 40° S visible
02 Aug 5.8 03:02:06 57° ENE 03:02:06 57° ENE 03:17:52 10° ENE visible
02 Aug 5.7 05:35:39 37° WNW 05:46:37 49° NNW 06:03:23 10° NE visible
02 Aug 6.0 22:25:43 10° SW 22:45:45 37° SSE 22:47:21 36° SSE visible
